| time (UTC) | temp C | wind direction | speed KPH | gust KPH | rain 1hr cm | rain 24hr cm | rain mn cm | humidity % | barometer mb |
| 20260508174150 | 26 | 190 | 1.6 | 1.6 | 0.00 | 0.00 | 0.00 | 69 | 1015.0 |
| 20260508173647 | 26 | 233 | 0.0 | 0.0 | 0.00 | 0.00 | 0.00 | 73 | 1015.3 |
| 20260508173143 | 26 | 235 | 0.0 | 0.0 | 0.00 | 0.00 | 0.00 | 71 | 1015.2 |
| 20260508172640 | 25 | 183 | 1.6 | 1.6 | 0.00 | 0.00 | 0.00 | 70 | 1015.2 |
| 20260508172137 | 25 | 283 | 1.6 | 3.2 | 0.00 | 0.00 | 0.00 | 70 | 1015.4 |
| 20260508171633 | 25 | 231 | 1.6 | 1.6 | 0.00 | 0.00 | 0.00 | 72 | 1015.6 |
| 20260508171130 | 24 | 199 | 1.6 | 1.6 | 0.00 | 0.00 | 0.00 | 76 | 1015.6 |
| 20260508170627 | 23 | 203 | 1.6 | 3.2 | 0.00 | 0.00 | 0.00 | 74 | 1015.9 |
| 20260508170125 | 24 | 198 | 3.2 | 4.8 | 0.00 | 0.00 | 0.00 | 73 | 1015.9 |
| 20260508165622 | 23 | 292 | 3.2 | 3.2 | 0.00 | 0.00 | 0.00 | 76 | 1015.7 |
| 20260508165118 | 23 | 292 | 1.6 | 3.2 | 0.00 | 0.00 | 0.00 | 75 | 1016.0 |
| 20260508164614 | 23 | 256 | 0.0 | 0.0 | 0.00 | 0.00 | 0.00 | 72 | 1015.9 |
| 20260508164112 | 24 | 232 | 0.0 | 0.0 | 0.00 | 0.00 | 0.00 | 72 | 1016.0 |
| 20260508163609 | 23 | 234 | 0.0 | 1.6 | 0.00 | 0.00 | 0.00 | 73 | 1016.0 |
| 20260508163106 | 23 | 233 | 0.0 | 0.0 | 0.00 | 0.00 | 0.00 | 74 | 1016.1 |
| 20260508162602 | 22 | 234 | 0.0 | 0.0 | 0.00 | 0.00 | 0.00 | 75 | 1016.2 |
| 20260508162100 | 23 | 205 | 0.0 | 0.0 | 0.00 | 0.00 | 0.00 | 73 | 1016.2 |
| 20260508161556 | 22 | 206 | 0.0 | 1.6 | 0.00 | 0.00 | 0.00 | 76 | 1016.4 |
| 20260508161054 | 21 | 205 | 0.0 | 0.0 | 0.00 | 0.00 | 0.00 | 78 | 1016.5 |
| 20260508160552 | 21 | 205 | 0.0 | 0.0 | 0.00 | 0.00 | 0.00 | 78 | 1016.4 |
| 20260508160049 | 21 | 205 | 1.6 | 1.6 | 0.00 | 0.00 | 0.00 | 77 | 1016.5 |
| 20260508155546 | 21 | 204 | 0.0 | 0.0 | 0.00 | 0.00 | 0.00 | 78 | 1016.6 |
| 20260508155043 | 21 | 203 | 1.6 | 3.2 | 0.00 | 0.00 | 0.00 | 78 | 1016.6 |
| 20260508154540 | 20 | 204 | 0.0 | 1.6 | 0.00 | 0.00 | 0.00 | 79 | 1016.7 |
| 20260508154037 | 20 | 203 | 1.6 | 1.6 | 0.00 | 0.00 | 0.00 | 80 | 1016.7 |
| 20260508153533 | 20 | 219 | 1.6 | 3.2 | 0.00 | 0.00 | 0.00 | 80 | 1016.7 |
| 20260508153030 | 19 | 203 | 1.6 | 1.6 | 0.00 | 0.00 | 0.00 | 81 | 1016.8 |
| 20260508152527 | 19 | 203 | 0.0 | 0.0 | 0.00 | 0.00 | 0.00 | 82 | 1016.8 |
| 20260508152022 | 19 | 203 | 0.0 | 0.0 | 0.00 | 0.00 | 0.00 | 82 | 1017.0 |
| 20260508151520 | 18 | 203 | 0.0 | 0.0 | 0.00 | 0.00 | 0.00 | 82 | 1017.1 |
| 20260508151016 | 18 | 203 | 0.0 | 0.0 | 0.00 | 0.00 | 0.00 | 82 | 1017.2 |
| 20260508150514 | 18 | 203 | 0.0 | 1.6 | 0.00 | 0.00 | 0.00 | 83 | 1017.1 |
| 20260508150009 | 18 | 205 | 3.2 | 3.2 | 0.00 | 0.00 | 0.00 | 82 | 1017.1 |
| 20260508145506 | 18 | 203 | 0.0 | 0.0 | 0.00 | 0.00 | 0.00 | 83 | 1017.2 |
| 20260508145002 | 18 | 205 | 3.2 | 3.2 | 0.00 | 0.00 | 0.00 | 82 | 1017.1 |
| 20260508144500 | 19 | 203 | 1.6 | 3.2 | 0.00 | 0.00 | 0.00 | 82 | 1017.1 |
| 20260508143957 | 18 | 221 | 1.6 | 3.2 | 0.00 | 0.00 | 0.00 | 81 | 1017.1 |
| 20260508143455 | 18 | 220 | 3.2 | 3.2 | 0.00 | 0.00 | 0.00 | 82 | 1017.0 |
| 20260508142951 | 18 | 220 | 1.6 | 1.6 | 0.00 | 0.00 | 0.00 | 82 | 1017.1 |
| 20260508142448 | 18 | 220 | 1.6 | 1.6 | 0.00 | 0.00 | 0.00 | 83 | 1017.0 |
| 20260508141944 | 18 | 221 | 1.6 | 3.2 | 0.00 | 0.00 | 0.00 | 82 | 1016.8 |
| 20260508141441 | 18 | 222 | 0.0 | 0.0 | 0.00 | 0.00 | 0.00 | 82 | 1016.8 |
| 20260508140939 | 18 | 221 | 3.2 | 3.2 | 0.00 | 0.00 | 0.00 | 82 | 1016.8 |
| 20260508140436 | 18 | 222 | 0.0 | 0.0 | 0.00 | 0.00 | 0.00 | 84 | 1017.0 |
| 20260508135931 | 18 | 223 | 0.0 | 0.0 | 0.00 | 0.00 | 0.00 | 83 | 1016.8 |
| 20260508135428 | 17 | 222 | 1.6 | 1.6 | 0.00 | 0.00 | 0.00 | 84 | 1016.8 |
| 20260508134925 | 17 | 223 | 1.6 | 1.6 | 0.00 | 0.00 | 0.00 | 84 | 1017.1 |
| 20260508134421 | 17 | 222 | 3.2 | 3.2 | 0.00 | 0.00 | 0.00 | 85 | 1017.3 |
| 20260508133918 | 17 | 223 | 0.0 | 1.6 | 0.00 | 0.00 | 0.00 | 85 | 1017.2 |
| 20260508133416 | 17 | 223 | 0.0 | 1.6 | 0.00 | 0.00 | 0.00 | 86 | 1017.1 |
| 20260508132912 | 17 | 223 | 0.0 | 0.0 | 0.00 | 0.00 | 0.00 | 86 | 1017.2 |
| 20260508132410 | 17 | 223 | 1.6 | 3.2 | 0.00 | 0.00 | 0.00 | 85 | 1017.2 |
| 20260508131907 | 17 | 224 | 1.6 | 1.6 | 0.00 | 0.00 | 0.00 | 85 | 1017.4 |
| 20260508131402 | 17 | 224 | 0.0 | 0.0 | 0.00 | 0.00 | 0.00 | 86 | 1017.4 |
| 20260508130859 | 17 | 224 | 0.0 | 0.0 | 0.00 | 0.00 | 0.00 | 86 | 1017.3 |
| 20260508130356 | 17 | 235 | 0.0 | 0.0 | 0.00 | 0.00 | 0.00 | 86 | 1017.2 |
| 20260508125852 | 17 | 235 | 0.0 | 0.0 | 0.00 | 0.00 | 0.00 | 86 | 1017.5 |
| 20260508125348 | 17 | 235 | 0.0 | 0.0 | 0.00 | 0.00 | 0.00 | 86 | 1017.6 |
| 20260508124846 | 17 | 235 | 0.0 | 0.0 | 0.00 | 0.00 | 0.00 | 86 | 1017.5 |
| 20260508124343 | 17 | 226 | 0.0 | 0.0 | 0.00 | 0.00 | 0.00 | 85 | 1017.7 |
| 20260508123841 | 16 | 225 | 0.0 | 0.0 | 0.00 | 0.00 | 0.00 | 85 | 1017.5 |
| 20260508123340 | 16 | 225 | 0.0 | 0.0 | 0.00 | 0.00 | 0.00 | 85 | 1017.6 |
| 20260508122836 | 16 | 225 | 0.0 | 0.0 | 0.00 | 0.00 | 0.00 | 85 | 1017.4 |
| 20260508122332 | 16 | 216 | 0.0 | 0.0 | 0.00 | 0.00 | 0.00 | 86 | 1017.6 |
| 20260508121830 | 16 | 225 | 0.0 | 0.0 | 0.00 | 0.00 | 0.00 | 86 | 1017.5 |
| 20260508121328 | 16 | 241 | 0.0 | 0.0 | 0.00 | 0.00 | 0.00 | 86 | 1017.2 |
| 20260508120826 | 16 | 248 | 0.0 | 0.0 | 0.00 | 0.00 | 0.00 | 87 | 1017.7 |
| 20260508120323 | 16 | 228 | 0.0 | 0.0 | 0.00 | 0.00 | 0.00 | 88 | 1017.6 |
| 20260508115820 | 16 | 226 | 0.0 | 0.0 | 0.00 | 0.00 | 0.00 | 88 | 1017.7 |
| 20260508115318 | 16 | 226 | 0.0 | 0.0 | 0.00 | 0.00 | 0.00 | 88 | 1017.7 |
| 20260508114814 | 16 | 225 | 1.6 | 1.6 | 0.00 | 0.00 | 0.00 | 88 | 1017.9 |
| 20260508114311 | 16 | 249 | 0.0 | 0.0 | 0.00 | 0.00 | 0.00 | 88 | 1018.1 |
| 20260508113808 | 16 | 249 | 0.0 | 0.0 | 0.00 | 0.00 | 0.00 | 88 | 1018.1 |
| 20260508113306 | 16 | 249 | 0.0 | 0.0 | 0.00 | 0.00 | 0.00 | 88 | 1018.0 |
| 20260508112802 | 16 | 249 | 0.0 | 0.0 | 0.00 | 0.00 | 0.00 | 88 | 1018.0 |
| 20260508112259 | 16 | 249 | 0.0 | 0.0 | 0.00 | 0.00 | 0.00 | 87 | 1018.0 |
| 20260508111755 | 16 | 249 | 0.0 | 0.0 | 0.00 | 0.00 | 0.00 | 87 | 1018.0 |
| 20260508111254 | 16 | 249 | 0.0 | 0.0 | 0.00 | 0.00 | 0.00 | 87 | 1017.6 |
| 20260508110750 | 16 | 249 | 0.0 | 0.0 | 0.00 | 0.00 | 0.00 | 87 | 1017.9 |
| 20260508110248 | 16 | 249 | 0.0 | 0.0 | 0.00 | 0.00 | 0.00 | 87 | 1017.9 |
| 20260508105747 | 16 | 249 | 0.0 | 0.0 | 0.00 | 0.00 | 0.00 | 87 | 1018.1 |
| 20260508105244 | 16 | 249 | 0.0 | 0.0 | 0.00 | 0.00 | 0.00 | 87 | 1017.5 |
| 20260508104742 | 16 | 249 | 0.0 | 0.0 | 0.00 | 0.00 | 0.00 | 87 | 1017.6 |
| 20260508104238 | 16 | 249 | 0.0 | 0.0 | 0.00 | 0.00 | 0.00 | 87 | 1017.5 |
| 20260508103736 | 16 | 248 | 1.6 | 1.6 | 0.00 | 0.00 | 0.00 | 87 | 1017.5 |
| 20260508103232 | 16 | 249 | 0.0 | 0.0 | 0.00 | 0.00 | 0.00 | 87 | 1017.4 |
| 20260508102730 | 16 | 249 | 0.0 | 0.0 | 0.00 | 0.00 | 0.00 | 87 | 1017.5 |
| 20260508102228 | 16 | 249 | 0.0 | 0.0 | 0.00 | 0.00 | 0.00 | 87 | 1017.8 |
| 20260508101725 | 16 | 258 | 1.6 | 3.2 | 0.00 | 0.00 | 0.00 | 87 | 1017.7 |
| 20260508101222 | 16 | 227 | 0.0 | 0.0 | 0.00 | 0.00 | 0.00 | 88 | 1017.8 |
| 20260508100720 | 16 | 227 | 1.6 | 3.2 | 0.00 | 0.00 | 0.00 | 87 | 1018.0 |
| 20260508100218 | 16 | 227 | 0.0 | 1.6 | 0.00 | 0.00 | 0.00 | 87 | 1018.1 |
| 20260508095713 | 16 | 227 | 0.0 | 0.0 | 0.00 | 0.00 | 0.00 | 87 | 1018.3 |
| 20260508095212 | 16 | 249 | 0.0 | 0.0 | 0.00 | 0.00 | 0.00 | 86 | 1018.2 |
| 20260508094708 | 16 | 249 | 0.0 | 0.0 | 0.00 | 0.00 | 0.00 | 86 | 1018.2 |
| 20260508094205 | 16 | 215 | 0.0 | 0.0 | 0.00 | 0.00 | 0.00 | 86 | 1018.1 |
| 20260508093702 | 16 | 215 | 0.0 | 0.0 | 0.00 | 0.00 | 0.00 | 86 | 1018.0 |
| 20260508093200 | 16 | 215 | 0.0 | 0.0 | 0.00 | 0.00 | 0.00 | 86 | 1018.1 |
| 20260508092656 | 16 | 215 | 0.0 | 0.0 | 0.00 | 0.00 | 0.00 | 86 | 1018.0 |
| 20260508092155 | 16 | 215 | 0.0 | 0.0 | 0.00 | 0.00 | 0.00 | 86 | 1018.2 |
| 20260508091652 | 16 | 215 | 0.0 | 0.0 | 0.00 | 0.00 | 0.00 | 86 | 1018.0 |
| 20260508091149 | 16 | 215 | 0.0 | 0.0 | 0.00 | 0.00 | 0.00 | 86 | 1017.9 |
| 20260508090647 | 16 | 215 | 0.0 | 0.0 | 0.00 | 0.00 | 0.00 | 86 | 1017.8 |
| 20260508090144 | 16 | 216 | 0.0 | 0.0 | 0.00 | 0.00 | 0.00 | 86 | 1017.7 |
| 20260508085639 | 16 | 216 | 0.0 | 0.0 | 0.00 | 0.00 | 0.00 | 85 | 1017.7 |
| 20260508085137 | 16 | 216 | 0.0 | 0.0 | 0.00 | 0.00 | 0.00 | 85 | 1017.8 |
| 20260508084633 | 16 | 216 | 0.0 | 0.0 | 0.00 | 0.00 | 0.00 | 85 | 1017.6 |
| 20260508084131 | 16 | 216 | 0.0 | 0.0 | 0.00 | 0.00 | 0.00 | 85 | 1017.7 |
| 20260508083628 | 16 | 215 | 0.0 | 0.0 | 0.00 | 0.00 | 0.00 | 84 | 1017.7 |
| 20260508083125 | 16 | 215 | 0.0 | 0.0 | 0.00 | 0.00 | 0.00 | 84 | 1017.7 |
| 20260508082620 | 16 | 215 | 0.0 | 0.0 | 0.00 | 0.00 | 0.00 | 85 | 1017.9 |
| 20260508082119 | 16 | 215 | 0.0 | 0.0 | 0.00 | 0.00 | 0.00 | 84 | 1017.7 |
| 20260508081616 | 16 | 215 | 0.0 | 0.0 | 0.00 | 0.00 | 0.00 | 84 | 1017.8 |
| 20260508081112 | 16 | 215 | 0.0 | 0.0 | 0.00 | 0.00 | 0.00 | 84 | 1017.8 |
| 20260508080609 | 16 | 215 | 0.0 | 0.0 | 0.00 | 0.00 | 0.00 | 84 | 1018.0 |
| 20260508080108 | 16 | 215 | 0.0 | 0.0 | 0.00 | 0.00 | 0.00 | 84 | 1018.0 |
| 20260508075603 | 16 | 215 | 0.0 | 0.0 | 0.00 | 0.00 | 0.00 | 84 | 1017.9 |
| 20260508075101 | 16 | 216 | 0.0 | 0.0 | 0.00 | 0.00 | 0.00 | 84 | 1017.8 |
| 20260508074558 | 16 | 216 | 0.0 | 0.0 | 0.00 | 0.00 | 0.00 | 84 | 1017.7 |
| 20260508074055 | 16 | 216 | 0.0 | 0.0 | 0.00 | 0.00 | 0.00 | 84 | 1017.7 |
| 20260508073552 | 16 | 215 | 0.0 | 0.0 | 0.00 | 0.00 | 0.00 | 84 | 1017.8 |
| 20260508073050 | 16 | 216 | 0.0 | 0.0 | 0.00 | 0.00 | 0.00 | 84 | 1017.7 |
| 20260508072545 | 16 | 215 | 0.0 | 0.0 | 0.00 | 0.00 | 0.00 | 84 | 1017.6 |
| 20260508072042 | 16 | 205 | 1.6 | 1.6 | 0.00 | 0.00 | 0.00 | 85 | 1017.6 |
| 20260508071541 | 16 | 205 | 0.0 | 0.0 | 0.00 | 0.00 | 0.00 | 85 | 1017.9 |
| 20260508071038 | 16 | 205 | 0.0 | 0.0 | 0.00 | 0.00 | 0.00 | 85 | 1018.0 |
| 20260508070536 | 16 | 250 | 0.0 | 0.0 | 0.00 | 0.00 | 0.00 | 87 | 1017.9 |
| 20260508070034 | 16 | 250 | 0.0 | 0.0 | 0.00 | 0.00 | 0.00 | 87 | 1017.5 |
| 20260508065531 | 16 | 250 | 0.0 | 1.6 | 0.00 | 0.00 | 0.00 | 88 | 1017.8 |
| 20260508065029 | 16 | 250 | 0.0 | 0.0 | 0.00 | 0.00 | 0.00 | 88 | 1017.9 |
| 20260508064527 | 16 | 250 | 0.0 | 0.0 | 0.00 | 0.00 | 0.00 | 88 | 1018.4 |
| 20260508064024 | 16 | 250 | 0.0 | 0.0 | 0.00 | 0.00 | 0.00 | 89 | 1018.6 |
| 20260508063521 | 16 | 250 | 0.0 | 0.0 | 0.00 | 0.00 | 0.00 | 89 | 1018.3 |
| 20260508063019 | 16 | 250 | 0.0 | 0.0 | 0.00 | 0.00 | 0.00 | 89 | 1018.2 |
| 20260508062516 | 16 | 250 | 0.0 | 0.0 | 0.00 | 0.00 | 0.00 | 89 | 1018.1 |
| 20260508062013 | 16 | 250 | 0.0 | 0.0 | 0.00 | 0.00 | 0.00 | 88 | 1018.4 |
| 20260508061511 | 16 | 250 | 0.0 | 0.0 | 0.00 | 0.00 | 0.00 | 88 | 1018.7 |
| 20260508061007 | 16 | 250 | 0.0 | 0.0 | 0.00 | 0.00 | 0.00 | 88 | 1018.9 |
| 20260508060505 | 16 | 250 | 0.0 | 1.6 | 0.00 | 0.00 | 0.00 | 88 | 1018.7 |
| 20260508060001 | 16 | 250 | 0.0 | 0.0 | 0.00 | 0.00 | 0.00 | 88 | 1018.4 |
| 20260508055457 | 16 | 250 | 0.0 | 0.0 | 0.00 | 0.00 | 0.00 | 88 | 1018.6 |
| 20260508054954 | 16 | 250 | 0.0 | 0.0 | 0.00 | 0.00 | 0.00 | 88 | 1018.5 |
| 20260508054451 | 16 | 250 | 0.0 | 0.0 | 0.00 | 0.00 | 0.00 | 88 | 1018.3 |
| 20260508053948 | 16 | 250 | 0.0 | 0.0 | 0.00 | 0.00 | 0.00 | 87 | 1018.4 |
| 20260508053444 | 16 | 250 | 0.0 | 0.0 | 0.00 | 0.00 | 0.00 | 87 | 1018.5 |
| 20260508052943 | 16 | 250 | 0.0 | 0.0 | 0.00 | 0.00 | 0.00 | 86 | 1018.7 |
| 20260508052440 | 16 | 250 | 0.0 | 0.0 | 0.00 | 0.00 | 0.00 | 86 | 1018.7 |
| 20260508051936 | 16 | 250 | 0.0 | 0.0 | 0.00 | 0.00 | 0.00 | 85 | 1018.9 |
| 20260508051432 | 16 | 250 | 0.0 | 1.6 | 0.00 | 0.00 | 0.00 | 85 | 1018.6 |
| 20260508050928 | 16 | 250 | 0.0 | 1.6 | 0.00 | 0.00 | 0.00 | 85 | 1018.5 |
| 20260508050425 | 16 | 250 | 0.0 | 0.0 | 0.00 | 0.00 | 0.00 | 85 | 1018.6 |
| 20260508045921 | 16 | 250 | 0.0 | 0.0 | 0.00 | 0.00 | 0.00 | 85 | 1018.6 |
| 20260508045419 | 16 | 250 | 0.0 | 0.0 | 0.00 | 0.00 | 0.00 | 84 | 1018.4 |
| 20260508044916 | 16 | 250 | 0.0 | 0.0 | 0.00 | 0.00 | 0.00 | 84 | 1018.5 |
| 20260508044413 | 16 | 250 | 0.0 | 0.0 | 0.00 | 0.00 | 0.00 | 83 | 1018.8 |
| 20260508043908 | 16 | 250 | 0.0 | 0.0 | 0.00 | 0.00 | 0.00 | 82 | 1019.1 |
| 20260508043406 | 16 | 250 | 1.6 | 1.6 | 0.00 | 0.00 | 0.00 | 82 | 1019.1 |
| 20260508042902 | 16 | 235 | 0.0 | 1.6 | 0.00 | 0.00 | 0.00 | 82 | 1019.4 |
| 20260508042400 | 16 | 250 | 0.0 | 0.0 | 0.00 | 0.00 | 0.00 | 82 | 1018.2 |
| 20260508041857 | 16 | 250 | 0.0 | 0.0 | 0.00 | 0.00 | 0.00 | 83 | 1018.2 |
| 20260508041353 | 16 | 194 | 1.6 | 1.6 | 0.00 | 0.00 | 0.00 | 84 | 1017.7 |
| 20260508040850 | 16 | 194 | 0.0 | 0.0 | 0.00 | 0.00 | 0.00 | 85 | 1018.3 |
| 20260508040347 | 16 | 194 | 0.0 | 0.0 | 0.00 | 0.00 | 0.00 | 84 | 1018.6 |
| 20260508035845 | 16 | 194 | 0.0 | 0.0 | 0.00 | 0.00 | 0.00 | 84 | 1019.0 |
| 20260508035342 | 16 | 194 | 0.0 | 0.0 | 0.00 | 0.00 | 0.00 | 84 | 1018.8 |
| 20260508034839 | 16 | 194 | 0.0 | 0.0 | 0.00 | 0.00 | 0.00 | 84 | 1018.9 |
| 20260508034336 | 16 | 194 | 0.0 | 0.0 | 0.00 | 0.00 | 0.00 | 84 | 1019.0 |
| 20260508033832 | 16 | 194 | 0.0 | 0.0 | 0.00 | 0.00 | 0.00 | 84 | 1019.0 |
| 20260508033331 | 16 | 194 | 0.0 | 0.0 | 0.00 | 0.00 | 0.00 | 83 | 1019.2 |
| 20260508032828 | 16 | 194 | 0.0 | 0.0 | 0.00 | 0.00 | 0.00 | 82 | 1019.5 |
| 20260508032325 | 16 | 194 | 0.0 | 0.0 | 0.00 | 0.00 | 0.00 | 83 | 1019.4 |
| 20260508031821 | 16 | 194 | 0.0 | 0.0 | 0.00 | 0.00 | 0.00 | 82 | 1019.6 |
| 20260508031318 | 16 | 194 | 0.0 | 0.0 | 0.00 | 0.00 | 0.00 | 80 | 1019.7 |
| 20260508030815 | 16 | 194 | 0.0 | 0.0 | 0.00 | 0.00 | 0.00 | 80 | 1019.8 |
| 20260508030312 | 16 | 194 | 0.0 | 0.0 | 0.00 | 0.00 | 0.00 | 80 | 1019.4 |
| 20260508025808 | 16 | 194 | 0.0 | 0.0 | 0.00 | 0.00 | 0.00 | 80 | 1019.5 |
| 20260508025306 | 16 | 194 | 0.0 | 0.0 | 0.00 | 0.00 | 0.00 | 80 | 1019.2 |
| 20260508024802 | 17 | 194 | 0.0 | 0.0 | 0.00 | 0.00 | 0.00 | 79 | 1019.0 |
| 20260508024259 | 17 | 194 | 0.0 | 0.0 | 0.00 | 0.00 | 0.00 | 77 | 1018.4 |
| 20260508023756 | 17 | 193 | 1.6 | 1.6 | 0.00 | 0.00 | 0.00 | 77 | 1018.3 |
| 20260508023253 | 17 | 193 | 0.0 | 0.0 | 0.00 | 0.00 | 0.00 | 77 | 1018.0 |
| 20260508022749 | 17 | 193 | 0.0 | 0.0 | 0.00 | 0.00 | 0.00 | 76 | 1018.2 |
| 20260508022245 | 17 | 193 | 0.0 | 0.0 | 0.00 | 0.00 | 0.00 | 75 | 1018.0 |
| 20260508021743 | 17 | 193 | 0.0 | 1.6 | 0.00 | 0.00 | 0.00 | 75 | 1017.7 |
| 20260508021238 | 17 | 150 | 4.8 | 4.8 | 0.00 | 0.00 | 0.00 | 74 | 1017.0 |
| 20260508020735 | 17 | 208 | 6.4 | 8.0 | 0.00 | 0.00 | 0.00 | 74 | 1017.2 |
| 20260508020233 | 17 | 205 | 1.6 | 1.6 | 0.00 | 0.00 | 0.00 | 74 | 1017.2 |
| 20260508015729 | 17 | 204 | 1.6 | 1.6 | 0.00 | 0.00 | 0.00 | 75 | 1017.4 |
| 20260508015227 | 17 | 216 | 0.0 | 0.0 | 0.00 | 0.00 | 0.00 | 76 | 1017.3 |
| 20260508014723 | 17 | 216 | 0.0 | 1.6 | 0.00 | 0.00 | 0.00 | 75 | 1017.5 |
| 20260508014220 | 17 | 206 | 4.8 | 4.8 | 0.00 | 0.00 | 0.00 | 74 | 1017.4 |
| 20260508013716 | 17 | 217 | 0.0 | 0.0 | 0.00 | 0.00 | 0.00 | 74 | 1017.4 |
| 20260508013212 | 17 | 216 | 3.2 | 3.2 | 0.00 | 0.00 | 0.00 | 74 | 1017.0 |
| 20260508012710 | 17 | 195 | 4.8 | 4.8 | 0.00 | 0.00 | 0.00 | 74 | 1017.0 |
| 20260508012207 | 17 | 217 | 1.6 | 1.6 | 0.00 | 0.00 | 0.00 | 74 | 1017.0 |
| 20260508011705 | 18 | 174 | 4.8 | 8.0 | 0.00 | 0.00 | 0.00 | 74 | 1017.4 |
| 20260508011202 | 18 | 183 | 0.0 | 3.2 | 0.00 | 0.00 | 0.00 | 74 | 1017.5 |
| 20260508010659 | 18 | 202 | 1.6 | 1.6 | 0.00 | 0.00 | 0.00 | 73 | 1017.3 |
| 20260508010156 | 18 | 207 | 1.6 | 3.2 | 0.00 | 0.00 | 0.00 | 73 | 1017.5 |
| 20260508005654 | 18 | 203 | 0.0 | 0.0 | 0.00 | 0.00 | 0.00 | 73 | 1017.7 |
| 20260508005150 | 18 | 210 | 0.0 | 0.0 | 0.00 | 0.00 | 0.00 | 73 | 1017.9 |
| 20260508004646 | 18 | 210 | 1.6 | 3.2 | 0.00 | 0.00 | 0.00 | 72 | 1017.3 |
| 20260508004142 | 18 | 195 | 0.0 | 0.0 | 0.00 | 0.00 | 0.00 | 73 | 1017.9 |
| 20260508003639 | 18 | 190 | 1.6 | 3.2 | 0.00 | 0.00 | 0.00 | 71 | 1017.7 |
| 20260508003137 | 18 | 210 | 1.6 | 1.6 | 0.00 | 0.00 | 0.00 | 71 | 1017.6 |
| 20260508002633 | 18 | 211 | 0.0 | 1.6 | 0.00 | 0.00 | 0.00 | 70 | 1017.6 |
| 20260508002131 | 18 | 261 | 1.6 | 3.2 | 0.00 | 0.00 | 0.00 | 70 | 1018.1 |
| 20260508001626 | 18 | 209 | 1.6 | 3.2 | 0.00 | 0.00 | 0.00 | 69 | 1017.9 |
| 20260508001122 | 18 | 199 | 0.0 | 0.0 | 0.00 | 0.00 | 0.00 | 69 | 1018.1 |
| 20260508000618 | 18 | 186 | 4.8 | 4.8 | 0.00 | 0.00 | 0.00 | 70 | 1018.3 |
| 20260508000116 | 19 | 194 | 0.0 | 0.0 | 0.00 | 0.00 | 0.00 | 74 | 1018.3 |
| 20260507235613 | 19 | 194 | 0.0 | 0.0 | 0.00 | 0.00 | 0.00 | 74 | 1018.4 |
| 20260507235110 | 19 | 194 | 0.0 | 0.0 | 0.00 | 0.00 | 0.00 | 73 | 1018.4 |
| 20260507234606 | 19 | 210 | 1.6 | 1.6 | 0.00 | 0.00 | 0.00 | 72 | 1018.6 |
| 20260507234103 | 19 | 253 | 0.0 | 0.0 | 0.00 | 0.00 | 0.00 | 73 | 1019.0 |
| 20260507233559 | 19 | 211 | 0.0 | 1.6 | 0.00 | 0.00 | 0.00 | 71 | 1018.8 |
| 20260507233059 | 19 | 246 | 0.0 | 0.0 | 0.00 | 0.00 | 0.00 | 71 | 1018.6 |
| 20260507232554 | 20 | 155 | 4.8 | 8.0 | 0.00 | 0.00 | 0.00 | 68 | 1018.7 |
| 20260507232052 | 20 | 198 | 1.6 | 4.8 | 0.00 | 0.00 | 0.00 | 68 | 1018.7 |
| 20260507231548 | 20 | 210 | 1.6 | 3.2 | 0.00 | 0.00 | 0.00 | 68 | 1018.9 |
| 20260507231045 | 20 | 195 | 0.0 | 1.6 | 0.00 | 0.00 | 0.00 | 66 | 1018.6 |
| 20260507230541 | 20 | 210 | 0.0 | 1.6 | 0.00 | 0.00 | 0.00 | 68 | 1018.8 |
| 20260507230038 | 20 | 200 | 3.2 | 3.2 | 0.00 | 0.00 | 0.00 | 68 | 1018.5 |
| 20260507225533 | 20 | 354 | 1.6 | 3.2 | 0.00 | 0.00 | 0.00 | 68 | 1019.0 |
| 20260507225030 | 20 | 247 | 0.0 | 0.0 | 0.00 | 0.00 | 0.00 | 67 | 1019.1 |
| 20260507224526 | 20 | 247 | 0.0 | 0.0 | 0.00 | 0.00 | 0.00 | 66 | 1018.9 |
| 20260507224022 | 20 | 246 | 0.0 | 0.0 | 0.00 | 0.00 | 0.00 | 70 | 1018.8 |
| 20260507223519 | 20 | 222 | 0.0 | 1.6 | 0.00 | 0.00 | 0.00 | 68 | 1019.0 |
| 20260507223016 | 20 | 232 | 0.0 | 0.0 | 0.00 | 0.00 | 0.00 | 70 | 1019.1 |
| 20260507222513 | 20 | 232 | 0.0 | 0.0 | 0.00 | 0.00 | 0.00 | 69 | 1019.2 |
| 20260507222009 | 20 | 232 | 0.0 | 0.0 | 0.00 | 0.00 | 0.00 | 67 | 1019.4 |
| 20260507221506 | 20 | 232 | 0.0 | 0.0 | 0.00 | 0.00 | 0.00 | 69 | 1019.4 |
| 20260507221002 | 20 | 232 | 1.6 | 1.6 | 0.00 | 0.00 | 0.00 | 70 | 1019.3 |
| 20260507220500 | 20 | 231 | 1.6 | 3.2 | 0.00 | 0.00 | 0.00 | 68 | 1019.5 |
| 20260507215956 | 20 | 232 | 0.0 | 1.6 | 0.00 | 0.00 | 0.00 | 67 | 1019.0 |
| 20260507215453 | 20 | 239 | 0.0 | 1.6 | 0.00 | 0.00 | 0.00 | 68 | 1019.4 |
| 20260507214950 | 20 | 227 | 0.0 | 0.0 | 0.00 | 0.00 | 0.00 | 68 | 1019.4 |
| 20260507214447 | 20 | 189 | 0.0 | 1.6 | 0.00 | 0.00 | 0.00 | 68 | 1019.4 |
| 20260507213943 | 20 | 201 | 0.0 | 0.0 | 0.00 | 0.00 | 0.00 | 69 | 1019.3 |
| 20260507213440 | 20 | 201 | 0.0 | 0.0 | 0.00 | 0.00 | 0.00 | 68 | 1019.5 |
| 20260507212937 | 21 | 201 | 0.0 | 0.0 | 0.00 | 0.00 | 0.00 | 66 | 1019.6 |
| 20260507212432 | 21 | 200 | 3.2 | 3.2 | 0.00 | 0.00 | 0.00 | 66 | 1020.0 |
| 20260507211930 | 22 | 238 | 1.6 | 1.6 | 0.00 | 0.00 | 0.00 | 62 | 1019.9 |
| 20260507211426 | 21 | 256 | 0.0 | 0.0 | 0.00 | 0.00 | 0.00 | 66 | 1019.6 |
| 20260507210923 | 20 | 243 | 0.0 | 0.0 | 0.00 | 0.00 | 0.00 | 70 | 1019.6 |
| 20260507210420 | 20 | 240 | 1.6 | 1.6 | 0.00 | 0.00 | 0.00 | 67 | 1019.6 |
| 20260507205917 | 20 | 188 | 1.6 | 8.0 | 0.00 | 0.00 | 0.00 | 70 | 1019.5 |
| 20260507205414 | 20 | 215 | 3.2 | 4.8 | 0.00 | 0.00 | 0.00 | 67 | 1019.3 |
| 20260507204910 | 20 | 218 | 0.0 | 0.0 | 0.00 | 0.00 | 0.00 | 70 | 1019.6 |
| 20260507204407 | 19 | 218 | 0.0 | 0.0 | 0.00 | 0.00 | 0.00 | 71 | 1019.6 |
| 20260507203904 | 19 | 218 | 0.0 | 0.0 | 0.00 | 0.00 | 0.00 | 72 | 1019.7 |
| 20260507203402 | 19 | 192 | 0.0 | 0.0 | 0.00 | 0.00 | 0.00 | 71 | 1020.1 |
| 20260507202858 | 19 | 188 | 1.6 | 1.6 | 0.00 | 0.00 | 0.00 | 69 | 1020.0 |
| 20260507202355 | 20 | 201 | 0.0 | 0.0 | 0.00 | 0.00 | 0.00 | 71 | 1019.9 |
| 20260507201850 | 20 | 192 | 3.2 | 4.8 | 0.00 | 0.00 | 0.00 | 71 | 1020.2 |
| 20260507201346 | 20 | 243 | 0.0 | 0.0 | 0.00 | 0.00 | 0.00 | 70 | 1020.2 |
| 20260507200842 | 20 | 229 | 0.0 | 0.0 | 0.00 | 0.00 | 0.00 | 70 | 1020.4 |
| 20260507200339 | 20 | 216 | 0.0 | 1.6 | 0.00 | 0.00 | 0.00 | 71 | 1020.5 |
| 20260507195835 | 20 | 216 | 1.6 | 1.6 | 0.00 | 0.00 | 0.00 | 68 | 1020.2 |
| 20260507195332 | 20 | 231 | 1.6 | 1.6 | 0.00 | 0.00 | 0.00 | 69 | 1020.6 |
| 20260507194830 | 20 | 216 | 0.0 | 1.6 | 0.00 | 0.00 | 0.00 | 69 | 1020.5 |
| 20260507194326 | 19 | 226 | 0.0 | 0.0 | 0.00 | 0.00 | 0.00 | 71 | 1020.5 |
| 20260507193822 | 20 | 265 | 3.2 | 3.2 | 0.00 | 0.00 | 0.00 | 70 | 1020.4 |
| 20260507193320 | 20 | 201 | 4.8 | 4.8 | 0.00 | 0.00 | 0.00 | 69 | 1020.4 |
| 20260507192815 | 20 | 209 | 3.2 | 8.0 | 0.00 | 0.00 | 0.00 | 69 | 1020.8 |
| 20260507192312 | 20 | 257 | 1.6 | 3.2 | 0.00 | 0.00 | 0.00 | 70 | 1020.9 |
| 20260507191808 | 20 | 228 | 0.0 | 1.6 | 0.00 | 0.00 | 0.00 | 71 | 1021.4 |
| 20260507191305 | 19 | 216 | 0.0 | 1.6 | 0.00 | 0.00 | 0.00 | 72 | 1021.1 |
| 20260507190802 | 18 | 217 | 0.0 | 0.0 | 0.00 | 0.00 | 0.00 | 75 | 1021.1 |
| 20260507190301 | 18 | 220 | 0.0 | 0.0 | 0.00 | 0.00 | 0.00 | 74 | 1021.1 |
| 20260507185759 | 18 | 221 | 0.0 | 1.6 | 0.00 | 0.00 | 0.00 | 74 | 1021.0 |
| 20260507185255 | 18 | 220 | 4.8 | 8.0 | 0.00 | 0.00 | 0.00 | 75 | 1021.0 |
| 20260507184752 | 18 | 221 | 1.6 | 1.6 | 0.00 | 0.00 | 0.00 | 76 | 1020.8 |
| 20260507184250 | 18 | 226 | 3.2 | 4.8 | 0.00 | 0.00 | 0.00 | 75 | 1021.0 |
| 20260507183747 | 18 | 209 | 0.0 | 1.6 | 0.00 | 0.00 | 0.00 | 77 | 1020.7 |
| 20260507183244 | 18 | 217 | 1.6 | 3.2 | 0.00 | 0.00 | 0.00 | 76 | 1020.7 |
| 20260507182741 | 18 | 175 | 4.8 | 8.0 | 0.00 | 0.00 | 0.00 | 75 | 1020.4 |
| 20260507182236 | 18 | 186 | 4.8 | 9.7 | 0.00 | 0.00 | 0.00 | 74 | 1020.9 |
| 20260507181733 | 18 | 237 | 1.6 | 1.6 | 0.00 | 0.00 | 0.00 | 75 | 1021.1 |
| 20260507181230 | 18 | 224 | 0.0 | 1.6 | 0.00 | 0.00 | 0.00 | 76 | 1021.0 |
| 20260507180726 | 18 | 197 | 1.6 | 3.2 | 0.00 | 0.00 | 0.00 | 78 | 1021.2 |
| 20260507180223 | 18 | 235 | 0.0 | 0.0 | 0.00 | 0.00 | 0.00 | 78 | 1021.1 |
| 20260507175719 | 18 | 238 | 0.0 | 1.6 | 0.00 | 0.00 | 0.00 | 79 | 1021.4 |
| 20260507175216 | 18 | 224 | 0.0 | 0.0 | 0.00 | 0.00 | 0.00 | 79 | 1020.9 |
| 20260507174713 | 18 | 196 | 1.6 | 3.2 | 0.00 | 0.00 | 0.00 | 77 | 1020.8 |